Clarksville, TX

2:44 AM CDT on October 19, 2017 (GMT -0500)
Clarksville

Weather History for KLBR - January, 2014

Change the Weather History Date:

Wednesday, January 29, 2014

  Actual Average (KPRX) Record (KPRX)
Temperature  
Mean Temperature 28 °F -  
Max Temperature 44 °F 53 °F 73 °F (2002)
Min Temperature 12 °F 34 °F 14 °F (2014)
Degree Days  
Heating Degree Days 37    
Moisture  
Dew Point 6 °F    
Average Humidity 45    
Maximum Humidity 81    
Minimum Humidity 17    
Precipitation  
Precipitation 0.00 in - - ()
Sea Level Pressure  
Sea Level Pressure 30.37 in    
Wind  
Wind Speed 1 mph (South)    
Max Wind Speed 8 mph    
Max Gust Speed -    
Visibility 10 miles    
Events      
Averages and records for this station are not official NWS values.
T = Trace of Precipitation, MM = Missing Value Source: NWS Daily Summary

Daily Weather History Graph

Daily Weather History Graph

Search for Another Location

Airport or City:

Trip Planner

Search our weather history database for the weather conditions in past years. The results will help you decide how hot, cold, wet, or windy it might be!

Date:

Astronomy

Jan. 29, 2014 Rise Set
Actual Time 7:18 AM CST 5:48 PM CST
Civil Twilight 6:52 AM CST 6:14 PM CST
Nautical Twilight 6:22 AM CST 6:44 PM CST
Astronomical Twilight 5:52 AM CST 7:14 PM CST
Moon 5:55 AM CST (1/29) 4:49 PM CST (1/29)
Length of Visible Light 11h 22m
Length of Day
10h 30m
Waning Crescent, 2% of the Moon is Illuminated
Jan 29
Waning Crescent
Jan 30
New
Feb 6
First Quarter
Feb 14
Full
Feb 22
Last Quarter

Hourly Weather History & Observations

Time (CST) Temp. Windchill Dew Point Humidity Pressure Visibility Wind Dir Wind Speed Gust Speed Precip Events Conditions
12:15 AM 18.3 °F - 8.4 °F 65% 30.45 in 10.0 mi Calm Calm - N/A   Clear
12:35 AM 19.0 °F - 7.3 °F 60% 30.45 in 7.0 mi Calm Calm - N/A   Clear
12:55 AM 17.1 °F - 7.5 °F 66% 30.45 in 10.0 mi Calm Calm - N/A   Clear
1:15 AM 17.1 °F - 6.8 °F 64% 30.45 in 10.0 mi Calm Calm - N/A   Clear
1:35 AM 15.3 °F - 8.2 °F 74% 30.44 in 10.0 mi Calm Calm - N/A   Clear
1:55 AM 16.3 °F - 9.1 °F 73% 30.44 in 10.0 mi Calm Calm - N/A   Clear
2:15 AM 17.6 °F - 8.4 °F 67% 30.44 in 10.0 mi Calm Calm - N/A   Clear
2:35 AM 18.3 °F - 6.6 °F 60% 30.43 in 10.0 mi Calm Calm - N/A   Clear
2:55 AM 17.6 °F - 7.5 °F 65% 30.43 in 10.0 mi Calm Calm - N/A   Clear
3:15 AM 17.2 °F - 6.4 °F 63% 30.43 in 10.0 mi Calm Calm - N/A   Clear
3:35 AM 16.5 °F - 6.4 °F 65% 30.43 in 10.0 mi Calm Calm - N/A   Clear
3:55 AM 14.9 °F - 7.9 °F 74% 30.43 in 10.0 mi Calm Calm - N/A   Clear
4:15 AM 14.5 °F - 8.2 °F 76% 30.43 in 10.0 mi Calm Calm - N/A   Clear
4:35 AM 14.9 °F - 7.7 °F 73% 30.44 in 10.0 mi Calm Calm - N/A   Clear
4:55 AM 14.4 °F - 7.7 °F 75% 30.43 in 10.0 mi Calm Calm - N/A   Clear
5:15 AM 13.5 °F - 6.6 °F 74% 30.43 in 10.0 mi Calm Calm - N/A   Clear
5:35 AM 13.3 °F - 8.1 °F 80% 30.42 in 10.0 mi Calm Calm - N/A   Clear
5:55 AM 13.6 °F - 7.7 °F 77% 30.42 in 10.0 mi Calm Calm - N/A   Clear
6:15 AM 13.6 °F - 8.1 °F 78% 30.41 in 10.0 mi Calm Calm - N/A   Clear
6:35 AM 13.6 °F - 7.7 °F 77% 30.41 in 10.0 mi Calm Calm - N/A   Clear
6:55 AM 12.9 °F - 7.3 °F 78% 30.41 in 10.0 mi Calm Calm - N/A   Clear
7:15 AM 14.0 °F - 8.4 °F 78% 30.42 in 10.0 mi Calm Calm - N/A   Clear
7:35 AM 14.0 °F - 8.2 °F 78% 30.43 in 10.0 mi Calm Calm - N/A   Clear
7:55 AM 13.6 °F - 8.6 °F 80% 30.44 in 10.0 mi Calm Calm - N/A   Clear
8:15 AM 14.7 °F - 9.9 °F 81% 30.44 in 10.0 mi Calm Calm - N/A   Clear
8:35 AM 18.3 °F - 11.8 °F 76% 30.45 in 10.0 mi Calm Calm - N/A   Clear
8:55 AM 22.3 °F - 13.5 °F 69% 30.45 in 10.0 mi Calm Calm - N/A   Clear
9:15 AM 26.6 °F - 13.1 °F 57% 30.46 in 10.0 mi Calm Calm - N/A   Clear
9:35 AM 29.5 °F - 13.5 °F 51% 30.46 in 7.0 mi Calm Calm - N/A   Clear
9:55 AM 30.7 °F - 10.0 °F 42% 30.47 in 10.0 mi Calm Calm - N/A   Clear
10:15 AM 32.0 °F - 9.9 °F 40% 30.46 in 10.0 mi Calm Calm - N/A   Clear
10:35 AM 33.1 °F - 4.8 °F 30% 30.46 in 10.0 mi Calm Calm - N/A   Clear
10:55 AM 34.2 °F - 5.7 °F 30% 30.46 in 10.0 mi Calm Calm - N/A   Clear
11:15 AM 36.1 °F - 4.5 °F 27% 30.46 in 10.0 mi Calm Calm - N/A   Clear
11:35 AM 37.0 °F 32.4 °F 5.4 °F 27% 30.46 in 10.0 mi South 5.8 mph - N/A   Clear
11:55 AM 37.9 °F 33.5 °F 4.5 °F 25% 30.44 in 10.0 mi SSE 5.8 mph - N/A   Clear
12:15 PM 38.8 °F 35.4 °F 4.5 °F 24% 30.44 in 10.0 mi SSW 4.6 mph - N/A   Clear
12:35 PM 39.7 °F 36.5 °F 2.1 °F 21% 30.42 in 10.0 mi South 4.6 mph - N/A   Clear
12:55 PM 41.0 °F 37.1 °F 1.2 °F 19% 30.41 in 10.0 mi SSW 5.8 mph - N/A   Clear
1:15 PM 41.7 °F 38.0 °F 1.0 °F 18% 30.39 in 10.0 mi South 5.8 mph - N/A   Clear
1:35 PM 42.3 °F 37.3 °F 0.5 °F 18% 30.38 in 10.0 mi South 8.1 mph - N/A   Clear
1:55 PM 42.1 °F 38.4 °F 1.0 °F 18% 30.36 in 10.0 mi SSW 5.8 mph - N/A   Clear
2:15 PM 42.8 °F 39.3 °F 1.4 °F 18% 30.35 in 10.0 mi SSW 5.8 mph - N/A   Clear
2:35 PM 43.0 °F - 0.9 °F 17% 30.34 in 10.0 mi Calm Calm - N/A   Clear
2:55 PM 44.1 °F 42.5 °F 1.9 °F 17% 30.33 in 10.0 mi WSW 3.5 mph - N/A   Clear
3:15 PM 43.7 °F 41.1 °F 1.8 °F 18% 30.32 in 10.0 mi WSW 4.6 mph - N/A   Clear
3:35 PM 44.1 °F 39.5 °F 1.4 °F 17% 30.32 in 10.0 mi South 8.1 mph - N/A   Clear
3:55 PM 43.5 °F 40.1 °F 2.8 °F 19% 30.31 in 10.0 mi SSE 5.8 mph - N/A   Clear
4:15 PM 43.3 °F 40.7 °F 2.7 °F 19% 30.31 in 10.0 mi SSE 4.6 mph - N/A   Clear
4:35 PM 43.2 °F 39.0 °F 3.0 °F 19% 30.30 in 10.0 mi South 6.9 mph - N/A   Clear
4:55 PM 42.8 °F 40.1 °F 3.6 °F 20% 30.29 in 7.0 mi SSE 4.6 mph - N/A   Clear
5:15 PM 42.3 °F 37.3 °F 4.6 °F 21% 30.29 in 10.0 mi SSE 8.1 mph - N/A   Clear
5:35 PM 40.6 °F 36.0 °F 5.2 °F 23% 30.29 in 10.0 mi SSE 6.9 mph - N/A   Clear
5:55 PM 39.0 °F - 4.8 °F 24% 30.28 in 10.0 mi Calm Calm - N/A   Clear
6:15 PM 37.4 °F - 4.8 °F 26% 30.28 in 10.0 mi Calm Calm - N/A   Clear
6:35 PM 35.6 °F - 5.9 °F 29% 30.27 in 10.0 mi Calm Calm - N/A   Clear
6:55 PM 34.7 °F - 5.9 °F 30% 30.27 in 10.0 mi Calm Calm - N/A   Clear
7:15 PM 35.2 °F - 5.0 °F 28% 30.27 in 10.0 mi Calm Calm - N/A   Clear
7:35 PM 34.3 °F - 5.2 °F 29% 30.26 in 10.0 mi Calm Calm - N/A   Clear
7:55 PM 33.8 °F - 5.9 °F 31% 30.26 in 10.0 mi Calm Calm - N/A   Clear
8:15 PM 33.4 °F 30.4 °F 6.3 °F 32% 30.26 in 10.0 mi SE 3.5 mph - N/A   Clear
8:35 PM 32.7 °F - 6.6 °F 33% 30.25 in 10.0 mi Calm Calm - N/A   Clear
8:55 PM 32.5 °F 28.1 °F 6.8 °F 34% 30.25 in 10.0 mi SE 4.6 mph - N/A   Clear
9:15 PM 32.0 °F - 7.0 °F 35% 30.25 in 10.0 mi Calm Calm - N/A   Clear
9:35 PM 32.0 °F - 7.3 °F 36% 30.25 in 10.0 mi Calm Calm - N/A   Clear
9:55 PM 31.6 °F - 7.7 °F 37% 30.26 in 10.0 mi Calm Calm - N/A   Clear
10:15 PM 31.1 °F - 7.9 °F 38% 30.25 in 10.0 mi Calm Calm - N/A   Clear
10:35 PM 31.1 °F 25.4 °F 8.2 °F 38% 30.24 in 10.0 mi SSE 5.8 mph - N/A   Clear
10:55 PM 32.0 °F 25.6 °F 7.9 °F 36% 30.24 in 10.0 mi SE 6.9 mph - N/A   Clear
11:15 PM 31.5 °F 24.2 °F 9.3 °F 40% 30.23 in 10.0 mi SE 8.1 mph - N/A   Clear
11:35 PM 31.1 °F 24.5 °F 10.2 °F 42% 30.23 in 7.0 mi SSE 6.9 mph - N/A   Clear
11:55 PM 32.0 °F 25.6 °F 10.4 °F 41% 30.22 in 7.0 mi SSE 6.9 mph - N/A   Clear